Lid_Strength_Index
-2 -2 -2 -2 -1 -1 -1 -2 -2 -2 -1 -1 -1 -2 -1 -1 -0 5 7 4 2 -1 -1 4 5 6 5 7 7 8 13 15 15 13 14 11 11 10 9 8 6 5 6 4 3
-2 -1 -1 -1 -1 -1 -1 -1 -1 -1 -2 -1 -1 -2 -1 -1 5 7 0 -1 -1 -1 4 6 7 6 8 8 8 10 14 14 13 14 13 12 11 11 11 9 7 6 5 3 2
-1 -2 -1 -2 -1 -2 -2 -2 -1 -1 -1 -1 -1 -1 -0 1 7 8 -1 -2 -2 -1 5 6 6 7 9 9 10 11 13 11 12 11 11 11 12 11 12 12 11 9 6 4 4
-1 -1 -1 -1 -1 -2 -2 -2 -1 -1 -1 -1 -1 -1 0 4 12 6 -2 -1 -2 2 5 6 7 9 11 11 9 12 10 10 10 10 11 12 11 12 12 12 8 7 4 4 4
-0 -0 -1 -2 -2 -2 -2 -1 -1 -1 -1 -1 -1 -0 4 9 9 5 -1 1 4 5 6 7 8 9 11 11 10 11 11 10 10 10 11 10 12 12 13 12 7 6 4 4 4
-0 -0 0 0 -1 -1 -1 -1 -1 -1 -0 -0 -1 -1 7 11 5 4 4 4 4 5 7 7 8 8 9 10 11 10 10 10 10 10 10 11 12 11 13 12 8 6 5 4 4
-0 -0 0 1 1 -0 -0 -1 -1 -0 0 0 -0 4 7 9 5 5 4 5 4 5 7 7 7 8 9 11 9 10 12 11 11 10 11 11 12 13 12 10 11 6 5 4 4
-0 0 0 0 1 1 -0 -0 -1 -1 0 -0 -0 6 10 5 6 5 5 5 4 4 6 6 6 8 9 9 10 12 12 14 11 11 10 11 14 12 11 11 11 8 6 5 6
0 0 0 0 0 1 1 -0 -1 -1 -0 -0 6 8 10 3 6 5 5 6 5 5 5 5 6 9 9 12 13 13 17 14 12 11 12 12 14 11 12 11 12 12 8 7 8
1 1 0 0 -0 -0 0 1 1 2 3 4 5 8 8 9 7 6 6 5 6 6 6 7 9 13 13 14 19 16 16 13 14 13 13 14 15 14 13 13 14 12 12 10 9
2 1 1 1 -0 -1 2 4 7 9 8 10 10 10 8 6 6 7 6 6 5 7 10 9 14 17 15 14 13 14 14 15 14 13 15 16 16 15 14 14 14 14 12 11 10
2 2 1 1 0 1 5 8 8 7 11 7 7 8 7 8 10 9 6 8 10 13 10 13 16 13 11 12 13 14 15 17 15 13 14 15 17 15 13 14 14 14 14 12 11
2 2 2 1 1 4 7 7 5 6 11 10 8 9 8 7 10 10 8 8 11 13 14 15 13 10 11 14 13 16 17 18 17 15 14 17 18 16 14 13 13 13 13 13 12
2 3 2 1 5 6 8 5 5 6 18 14 11 9 8 8 11 8 8 9 11 15 13 14 12 12 14 15 15 15 15 15 16 20 22 17 21 18 17 16 15 15 16 15 14
2 3 2 2 6 8 7 5 6 8 23 13 12 7 8 11 11 11 8 10 14 15 14 16 15 16 16 16 15 16 15 16 17 20 21 19 23 19 17 18 17 16 16 15 15
3 3 3 6 7 7 6 6 8 17 23 17 11 12 13 12 12 11 11 10 11 13 14 16 13 15 16 14 14 14 17 17 19 21 25 25 24 22 19 18 18 17 16 15 15
3 4 6 7 10 7 7 8 17 22 16 18 16 13 15 16 14 13 14 16 18 20 19 16 17 15 15 17 15 17 20 25 25 24 23 29 24 21 18 18 18 18 17 17 16
3 4 6 8 8 9 8 14 21 22 19 14 14 15 17 16 16 15 16 18 17 17 20 23 21 18 16 18 19 18 20 24 29 26 23 29 25 21 18 17 17 17 17 16 17
4 7 9 10 8 8 13 20 21 17 14 15 15 19 19 16 18 17 18 18 18 17 20 22 20 17 17 16 18 18 23 20 27 33 28 24 20 18 18 19 18 18 18 18 17
9 8 9 9 9 10 15 19 20 14 13 14 18 18 22 20 18 18 18 17 17 17 17 19 23 20 17 17 18 18 18 23 24 29 30 25 27 20 22 24 22 20 20 19 18
9 11 7 9 9 13 19 23 18 13 12 15 17 20 18 19 18 19 19 17 16 17 17 18 23 21 19 23 22 22 22 22 22 22 27 29 24 24 24 25 25 25 20 22 21
10 14 8 8 14 17 22 19 13 14 13 14 15 16 18 18 18 21 18 17 15 16 18 17 18 25 22 19 18 19 19 19 24 27 24 24 23 22 24 25 26 24 20 19 19
13 13 8 9 18 22 18 17 15 15 15 15 16 16 16 21 21 18 18 15 15 17 18 17 24 29 23 21 19 22 19 19 23 20 26 27 23 25 25 26 25 24 21 21 19
12 16 14 14 15 17 19 18 17 14 15 15 15 16 18 21 18 22 18 16 16 16 13 15 19 24 25 23 24 23 20 20 22 29 25 23 21 24 24 27 25 24 23 22 20
13 17 17 20 17 17 16 17 18 19 16 15 17 17 18 22 20 24 19 18 17 14 17 18 26 22 22 23 24 21 22 23 23 23 25 21 25 24 26 26 24 24 22 20 18
14 15 16 20 17 17 16 17 18 18 17 17 19 16 17 21 18 19 19 19 19 18 18 18 27 26 27 21 20 23 21 21 23 21 25 21 22 27 27 28 26 22 23 22 20
15 15 13 16 17 19 18 18 18 18 17 17 17 17 18 17 17 17 17 17 18 18 19 22 27 30 29 25 26 26 25 24 24 26 24 26 24 29 27 25 24 23 23 21 21